Weather History for Key West, FL

Change the Weather History Date:

Wednesday, June 5, 2013

  Actual Average Record
Temperature  
Mean Temperature 80 °F 83 °F  
Max Temperature 83 °F 87 °F 93 °F (1985)
Min Temperature 76 °F 78 °F 69 °F (1887)
Degree Days  
Heating Degree Days 0 0  
Month to date heating degree days 0 0  
Since 1 June heating degree days 0 0  
Since 1 July heating degree days 28 73  
Cooling Degree Days 15 18  
Month to date cooling degree days 75 87  
Year to date cooling degree days 1704 1517  
Since 1 June cooling degree days 75 87  
Growing Degree Days 30 (Base 50)    
Moisture  
Dew Point 76 °F    
Average Humidity 88    
Maximum Humidity 91    
Minimum Humidity 85    
Precipitation  
Precipitation 0.84 in 0.13 in 2.11 in (1936)
Month to date precipitation 2.07 0.69  
Year to date precipitation 16.86 11.32  
Snow  
Snow 0.00 in - - ()
Month to date snowfall 0.0  
Since 1 June snowfall 0.0  
Since 1 July snowfall 0.0  
Snow Depth 0.00 in    
Sea Level Pressure  
Sea Level Pressure 29.91 in    
Wind  
Wind Speed 15 mph (ESE)    
Max Wind Speed 26 mph    
Max Gust Speed 33 mph    
Visibility 8 miles    
Events Rain , Thunderstorm    
T = Trace of Precipitation, MM = Missing Value Source: NWS Daily Summary

Daily Weather History Graph

Daily Weather History Graph

Search for Another Location

Airport:

Trip Planner

Search our weather history database for the weather conditions in past years. The results will help you decide how hot, cold, wet, or windy it might be!

Date:

Astronomy

Jun. 05, 2013 Rise Set
Actual Time 6:37 AM EDT 8:13 PM EDT
Civil Twilight 6:12 AM EDT 8:39 PM EDT
Nautical Twilight 5:41 AM EDT 9:09 PM EDT
Astronomical Twilight 5:09 AM EDT 9:41 PM EDT
Moon 4:26 AM EDT (6/5) 5:50 PM EDT (6/5)
Length of Visible Light 14h 26m
Length of Day
13h 35m
Waning Crescent, 8% of the Moon is Illuminated
Jun 5
Waning Crescent
Jun 8
New
Jun 16
First Quarter
Jun 23
Full
Jun 30
Last Quarter

Hourly Weather History & Observations

Time (EDT) Temp. Heat Index Dew Point Humidity Pressure Visibility Wind Dir Wind Speed Gust Speed Precip Events Conditions
12:53 AM 81.0 °F 87.3 °F 75.9 °F 85% 29.99 in 10.0 mi East 13.8 mph - N/A   Mostly Cloudy
1:53 AM 81.0 °F 87.9 °F 77.0 °F 88% 29.97 in 10.0 mi East 10.4 mph - 0.00 in Rain Light Rain
2:53 AM 81.0 °F 87.9 °F 77.0 °F 88% 29.94 in 10.0 mi East 15.0 mph - 0.00 in   Mostly Cloudy
3:53 AM 81.0 °F 87.9 °F 77.0 °F 88% 29.91 in 10.0 mi East 12.7 mph - N/A   Mostly Cloudy
4:42 AM 80.6 °F 87.1 °F 77.0 °F 89% 29.90 in 10.0 mi East 13.8 mph - N/A   Mostly Cloudy
4:53 AM 81.0 °F 87.9 °F 77.0 °F 88% 29.91 in 10.0 mi East 13.8 mph - N/A   Scattered Clouds
5:53 AM 81.0 °F 87.3 °F 75.9 °F 85% 29.91 in 10.0 mi East 17.3 mph - N/A   Clear
6:53 AM 81.0 °F 87.3 °F 75.9 °F 85% 29.90 in 10.0 mi ESE 15.0 mph - N/A   Partly Cloudy
7:53 AM 81.0 °F 87.3 °F 75.9 °F 85% 29.91 in 6.0 mi ESE 13.8 mph 23.0 mph 0.05 in Rain Light Rain
8:29 AM 80.6 °F 87.1 °F 77.0 °F 89% 29.91 in 8.0 mi ESE 18.4 mph - 0.00 in   Mostly Cloudy
8:53 AM 81.0 °F 87.9 °F 77.0 °F 88% 29.92 in 7.0 mi ESE 16.1 mph - 0.00 in   Scattered Clouds
9:53 AM 82.0 °F 90.2 °F 77.0 °F 85% 29.94 in 8.0 mi ESE 16.1 mph - 0.00 in Rain Light Rain
10:53 AM 82.0 °F 90.2 °F 77.0 °F 85% 29.94 in 7.0 mi ESE 17.3 mph - 0.01 in   Mostly Cloudy
11:00 AM 82.4 °F 90.9 °F 77.0 °F 84% 29.95 in 2.0 mi SE 17.3 mph - 0.00 in Rain Light Rain
11:32 AM 77.0 °F - 73.4 °F 89% 29.96 in 2.0 mi East 15.0 mph 32.2 mph 0.24 in Rain Heavy Rain
11:53 AM 79.0 °F - 73.0 °F 82% 29.94 in 2.0 mi ESE 18.4 mph 26.5 mph 0.47 in Rain Light Rain
12:00 PM 80.6 °F 84.6 °F 71.6 °F 74% 29.93 in 10.0 mi ESE 20.7 mph 26.5 mph 0.00 in Rain Light Rain
12:53 PM 81.0 °F 86.2 °F 73.9 °F 79% 29.94 in 9.0 mi ESE 13.8 mph - 0.00 in Rain Light Rain
1:53 PM 82.0 °F 90.2 °F 77.0 °F 85% 29.93 in 7.0 mi ESE 10.4 mph - 0.00 in Rain Light Rain
2:53 PM 82.0 °F 91.0 °F 78.1 °F 88% 29.92 in 7.0 mi SE 10.4 mph - 0.01 in Rain Light Rain
3:53 PM 82.0 °F 90.2 °F 77.0 °F 85% 29.88 in 8.0 mi ESE 12.7 mph - 0.00 in Rain Light Rain
4:53 PM 82.0 °F 90.2 °F 77.0 °F 85% 29.88 in 8.0 mi SE 10.4 mph - 0.00 in   Clear
5:53 PM 82.0 °F 90.2 °F 77.0 °F 85% 29.86 in 8.0 mi ESE 10.4 mph - N/A   Clear
6:53 PM 82.0 °F 90.2 °F 77.0 °F 85% 29.85 in 8.0 mi ESE 12.7 mph - N/A   Clear
7:53 PM 82.0 °F 90.2 °F 77.0 °F 85% 29.87 in 8.0 mi ESE 12.7 mph - 0.00 in   Partly Cloudy
8:53 PM 82.0 °F 91.0 °F 78.1 °F 88% 29.87 in 9.0 mi ESE 12.7 mph - 0.00 in Rain Light Rain
9:02 PM 82.4 °F 92.4 °F 78.8 °F 89% 29.86 in 9.0 mi ESE 17.3 mph - 0.00 in Thunderstorm Thunderstorm
9:34 PM 82.4 °F 89.5 °F 75.2 °F 79% 29.87 in 10.0 mi SE 16.1 mph - 0.00 in Rain Light Rain
9:53 PM 81.0 °F 86.7 °F 75.0 °F 82% 29.87 in 7.0 mi SE 17.3 mph - 0.00 in Rain Light Rain
10:53 PM 81.0 °F 88.6 °F 78.1 °F 91% 29.88 in 9.0 mi SE 15.0 mph - 0.01 in   Mostly Cloudy
11:53 PM 82.0 °F 89.4 °F 75.9 °F 82% 29.89 in 10.0 mi SSE 18.4 mph - 0.00 in Rain Light Rain